Year,Month,Day,Hour,Minute,Value (Times are PST for temperature in C)
2019,07,01,00,00,15.30
2019,07,01,00,01,15.30
2019,07,01,00,02,15.30
2019,07,01,00,03,15.20
2019,07,01,00,04,15.20
2019,07,01,00,05,15.20
2019,07,01,00,06,15.20
2019,07,01,00,07,15.20
2019,07,01,00,08,15.10
2019,07,01,00,09,15.10
2019,07,01,00,10,15.10
2019,07,01,00,11,15.00
2019,07,01,00,12,15.00
2019,07,01,00,13,15.00
2019,07,01,00,14,14.90
2019,07,01,00,15,14.90
2019,07,01,00,16,14.90
2019,07,01,00,17,14.90
2019,07,01,00,18,14.80
2019,07,01,00,19,14.80
2019,07,01,00,20,14.80
2019,07,01,00,21,14.80
2019,07,01,00,22,14.70
2019,07,01,00,23,14.70
2019,07,01,00,24,14.70
2019,07,01,00,25,14.70
2019,07,01,00,26,14.60
2019,07,01,00,27,14.60
2019,07,01,00,28,14.60
2019,07,01,00,29,14.60
2019,07,01,00,30,14.50
2019,07,01,00,31,14.50
2019,07,01,00,32,14.50
2019,07,01,00,33,14.50
2019,07,01,00,34,14.40
2019,07,01,00,35,14.40
2019,07,01,00,36,14.40
2019,07,01,00,37,14.40
2019,07,01,00,38,14.40
2019,07,01,00,39,14.40
2019,07,01,00,40,14.40
2019,07,01,00,41,14.30
2019,07,01,00,42,14.30
2019,07,01,00,43,14.30
2019,07,01,00,44,14.30
2019,07,01,00,45,14.30
2019,07,01,00,46,14.30
2019,07,01,00,47,14.20
2019,07,01,00,48,14.20
2019,07,01,00,49,14.20
2019,07,01,00,50,14.20
2019,07,01,00,51,14.20
2019,07,01,00,52,14.10
2019,07,01,00,53,14.10
2019,07,01,00,54,14.10
2019,07,01,00,55,14.10
2019,07,01,00,56,14.10
2019,07,01,00,57,14.10
2019,07,01,00,58,14.10
2019,07,01,00,59,14.10
2019,07,01,01,00,14.10
2019,07,01,01,01,14.10
2019,07,01,01,02,14.10
2019,07,01,01,03,14.10
2019,07,01,01,04,14.00
2019,07,01,01,05,14.00
2019,07,01,01,06,14.00
2019,07,01,01,07,14.00
2019,07,01,01,08,14.00
2019,07,01,01,09,14.00
2019,07,01,01,10,14.00
2019,07,01,01,11,14.00
2019,07,01,01,12,14.00
2019,07,01,01,13,14.00
2019,07,01,01,14,14.00
2019,07,01,01,15,13.90
2019,07,01,01,16,13.90
2019,07,01,01,17,13.90
2019,07,01,01,18,13.90
2019,07,01,01,19,13.90
2019,07,01,01,20,13.90
2019,07,01,01,21,13.90
2019,07,01,01,22,13.90
2019,07,01,01,23,13.90
2019,07,01,01,24,13.90
2019,07,01,01,25,13.90
2019,07,01,01,26,13.90
2019,07,01,01,27,13.90
2019,07,01,01,28,13.80
2019,07,01,01,29,13.80
2019,07,01,01,30,13.80
2019,07,01,01,31,13.80
2019,07,01,01,32,13.80
2019,07,01,01,33,13.80
2019,07,01,01,34,13.80
2019,07,01,01,35,13.80
2019,07,01,01,36,13.80
2019,07,01,01,37,13.80
2019,07,01,01,38,13.80
2019,07,01,01,39,13.80
2019,07,01,01,40,13.80
2019,07,01,01,41,13.70
2019,07,01,01,42,13.70
2019,07,01,01,43,13.70
2019,07,01,01,44,13.70
2019,07,01,01,45,13.70
2019,07,01,01,46,13.70
2019,07,01,01,47,13.70
2019,07,01,01,48,13.70
2019,07,01,01,49,13.70
2019,07,01,01,50,13.70
2019,07,01,01,51,13.70
2019,07,01,01,52,13.60
2019,07,01,01,53,13.60
2019,07,01,01,54,13.60
2019,07,01,01,55,13.60
2019,07,01,01,56,13.60
2019,07,01,01,57,13.60
2019,07,01,01,58,13.60
2019,07,01,01,59,13.60
2019,07,01,02,00,13.60
2019,07,01,02,01,13.60
2019,07,01,02,02,13.50
2019,07,01,02,03,13.50
2019,07,01,02,04,13.50
2019,07,01,02,05,13.50
2019,07,01,02,06,13.50
2019,07,01,02,07,13.50
2019,07,01,02,08,13.40
2019,07,01,02,09,13.40
2019,07,01,02,10,13.40
2019,07,01,02,11,13.40
2019,07,01,02,12,13.40
2019,07,01,02,13,13.40
2019,07,01,02,14,13.40
2019,07,01,02,15,13.40
2019,07,01,02,16,13.30
2019,07,01,02,17,13.30
2019,07,01,02,18,13.30
2019,07,01,02,19,13.30
2019,07,01,02,20,13.30
2019,07,01,02,21,13.30
2019,07,01,02,22,13.30
2019,07,01,02,23,13.30
2019,07,01,02,24,13.20
2019,07,01,02,25,13.20
2019,07,01,02,26,13.20
2019,07,01,02,27,13.20
2019,07,01,02,28,13.20
2019,07,01,02,29,13.20
2019,07,01,02,30,13.20
2019,07,01,02,31,13.20
2019,07,01,02,32,13.10
2019,07,01,02,33,13.10
2019,07,01,02,34,13.10
2019,07,01,02,35,13.10
2019,07,01,02,36,13.10
2019,07,01,02,37,13.10
2019,07,01,02,38,13.10
2019,07,01,02,39,13.10
2019,07,01,02,40,13.10
2019,07,01,02,41,13.10
2019,07,01,02,42,13.00
2019,07,01,02,43,13.00
2019,07,01,02,44,13.00
2019,07,01,02,45,13.00
2019,07,01,02,46,13.00
2019,07,01,02,47,13.00
2019,07,01,02,48,13.00
2019,07,01,02,49,13.00
2019,07,01,02,50,12.90
2019,07,01,02,51,12.90
2019,07,01,02,52,12.90
2019,07,01,02,53,12.90
2019,07,01,02,54,12.90
2019,07,01,02,55,12.90
2019,07,01,02,56,12.90
2019,07,01,02,57,12.90
2019,07,01,02,58,12.90
2019,07,01,02,59,12.90
2019,07,01,03,00,12.90
2019,07,01,03,01,12.90
2019,07,01,03,02,12.80
2019,07,01,03,03,12.80
2019,07,01,03,04,12.80
2019,07,01,03,05,12.80
2019,07,01,03,06,12.80
2019,07,01,03,07,12.80
2019,07,01,03,08,12.80
2019,07,01,03,09,12.80
2019,07,01,03,10,12.80
2019,07,01,03,11,12.80
2019,07,01,03,12,12.80
2019,07,01,03,13,12.80
2019,07,01,03,14,12.80
2019,07,01,03,15,12.80
2019,07,01,03,16,12.80
2019,07,01,03,17,12.80
2019,07,01,03,18,12.80
2019,07,01,03,19,12.80
2019,07,01,03,20,12.80
2019,07,01,03,21,12.70
2019,07,01,03,22,12.70
2019,07,01,03,23,12.70
2019,07,01,03,24,12.70
2019,07,01,03,25,12.70
2019,07,01,03,26,12.70
2019,07,01,03,27,12.70
2019,07,01,03,28,12.70
2019,07,01,03,29,12.70
2019,07,01,03,30,12.70
2019,07,01,03,31,12.70
2019,07,01,03,32,12.70
2019,07,01,03,33,12.70
2019,07,01,03,34,12.70
2019,07,01,03,35,12.60
2019,07,01,03,36,12.60
2019,07,01,03,37,12.60
2019,07,01,03,38,12.60
2019,07,01,03,39,12.60
2019,07,01,03,40,12.60
2019,07,01,03,41,12.60
2019,07,01,03,42,12.60
2019,07,01,03,43,12.60
2019,07,01,03,44,12.60
2019,07,01,03,45,12.60
2019,07,01,03,46,12.50
2019,07,01,03,47,12.50
2019,07,01,03,48,12.50
2019,07,01,03,49,12.50
2019,07,01,03,50,12.50
2019,07,01,03,51,12.40
2019,07,01,03,52,12.40
2019,07,01,03,53,12.40
2019,07,01,03,54,12.40
2019,07,01,03,55,12.40
2019,07,01,03,56,12.40
2019,07,01,03,57,12.40
2019,07,01,03,58,12.40
2019,07,01,03,59,12.40
2019,07,01,04,00,12.40
2019,07,01,04,01,12.30
2019,07,01,04,02,12.30
2019,07,01,04,03,12.30
2019,07,01,04,04,12.30
2019,07,01,04,05,12.30
2019,07,01,04,06,12.30
2019,07,01,04,07,12.30
2019,07,01,04,08,12.20
2019,07,01,04,09,12.20
2019,07,01,04,10,12.20
2019,07,01,04,11,12.20
2019,07,01,04,12,12.20
2019,07,01,04,13,12.20
2019,07,01,04,14,12.10
2019,07,01,04,15,12.10
2019,07,01,04,16,12.10
2019,07,01,04,17,12.10
2019,07,01,04,18,12.10
2019,07,01,04,19,12.10
2019,07,01,04,20,12.10
2019,07,01,04,21,12.10
2019,07,01,04,22,12.10
2019,07,01,04,23,12.10
2019,07,01,04,24,12.10
2019,07,01,04,25,12.00
2019,07,01,04,26,12.00
2019,07,01,04,27,12.00
2019,07,01,04,28,12.00
2019,07,01,04,29,12.00
2019,07,01,04,30,12.00
2019,07,01,04,31,12.00
2019,07,01,04,32,12.00
2019,07,01,04,33,11.90
2019,07,01,04,34,12.00
2019,07,01,04,35,11.90
2019,07,01,04,36,11.90
2019,07,01,04,37,11.90
2019,07,01,04,38,11.90
2019,07,01,04,39,11.90
2019,07,01,04,40,11.90
2019,07,01,04,41,11.90
2019,07,01,04,42,11.90
2019,07,01,04,43,11.90
2019,07,01,04,44,11.90
2019,07,01,04,45,11.90
2019,07,01,04,46,11.90
2019,07,01,04,47,11.80
2019,07,01,04,48,11.80
2019,07,01,04,49,11.80
2019,07,01,04,50,11.80
2019,07,01,04,51,11.80
2019,07,01,04,52,11.80
2019,07,01,04,53,11.80
2019,07,01,04,54,11.80
2019,07,01,04,55,11.70
2019,07,01,04,56,11.70
2019,07,01,04,57,11.70
2019,07,01,04,58,11.70
2019,07,01,04,59,11.70
2019,07,01,05,00,11.70
2019,07,01,05,01,11.70
2019,07,01,05,02,11.70
2019,07,01,05,03,11.60
2019,07,01,05,04,11.60
2019,07,01,05,05,11.60
2019,07,01,05,06,11.60
2019,07,01,05,07,11.60
2019,07,01,05,08,11.60
2019,07,01,05,09,11.60
2019,07,01,05,10,11.60
2019,07,01,05,11,11.60
2019,07,01,05,12,11.60
2019,07,01,05,13,11.60
2019,07,01,05,14,11.50
2019,07,01,05,15,11.50
2019,07,01,05,16,11.50
2019,07,01,05,17,11.50
2019,07,01,05,18,11.50
2019,07,01,05,19,11.50
2019,07,01,05,20,11.50
2019,07,01,05,21,11.40
2019,07,01,05,22,11.40
2019,07,01,05,23,11.40
2019,07,01,05,24,11.40
2019,07,01,05,25,11.40
2019,07,01,05,26,11.40
2019,07,01,05,27,11.40
2019,07,01,05,28,11.40
2019,07,01,05,29,11.40
2019,07,01,05,30,11.40
2019,07,01,05,31,11.40
2019,07,01,05,32,11.40
2019,07,01,05,33,11.40
2019,07,01,05,34,11.40
2019,07,01,05,35,11.40
2019,07,01,05,36,11.40
2019,07,01,05,37,11.40
2019,07,01,05,38,11.40
2019,07,01,05,39,11.40
2019,07,01,05,40,11.40
2019,07,01,05,41,11.40
2019,07,01,05,42,11.40
2019,07,01,05,43,11.40
2019,07,01,05,44,11.40
2019,07,01,05,45,11.40
2019,07,01,05,46,11.40
2019,07,01,05,47,11.40
2019,07,01,05,48,11.40
2019,07,01,05,49,11.40
2019,07,01,05,50,11.40
2019,07,01,05,51,11.40
2019,07,01,05,52,11.40
2019,07,01,05,53,11.40
2019,07,01,05,54,11.40
2019,07,01,05,55,11.40
2019,07,01,05,56,11.40
2019,07,01,05,57,11.40
2019,07,01,05,58,11.40
2019,07,01,05,59,11.40
2019,07,01,06,00,11.40
2019,07,01,06,01,11.40
2019,07,01,06,02,11.40
2019,07,01,06,03,11.40
2019,07,01,06,04,11.40
2019,07,01,06,05,11.40
2019,07,01,06,06,11.40
2019,07,01,06,07,11.40
2019,07,01,06,08,11.40
2019,07,01,06,09,11.40
2019,07,01,06,10,11.50
2019,07,01,06,11,11.50
2019,07,01,06,12,11.60
2019,07,01,06,13,11.60
2019,07,01,06,14,11.60
2019,07,01,06,15,11.60
2019,07,01,06,16,11.70
2019,07,01,06,17,11.70
2019,07,01,06,18,11.70
2019,07,01,06,19,11.70
2019,07,01,06,20,11.70
2019,07,01,06,21,11.80
2019,07,01,06,22,11.80
2019,07,01,06,23,11.80
2019,07,01,06,24,11.80
2019,07,01,06,25,11.80
2019,07,01,06,26,11.90
2019,07,01,06,27,11.90
2019,07,01,06,28,11.90
2019,07,01,06,29,11.90
2019,07,01,06,30,11.90
2019,07,01,06,31,11.90
2019,07,01,06,32,11.90
2019,07,01,06,33,12.00
2019,07,01,06,34,12.00
2019,07,01,06,35,12.00
2019,07,01,06,36,12.00
2019,07,01,06,37,12.00
2019,07,01,06,38,12.00
2019,07,01,06,39,12.10
2019,07,01,06,40,12.10
2019,07,01,06,41,12.10
2019,07,01,06,42,12.10
2019,07,01,06,43,12.20
2019,07,01,06,44,12.20
2019,07,01,06,45,12.20
2019,07,01,06,46,12.30
2019,07,01,06,47,12.30
2019,07,01,06,48,12.40
2019,07,01,06,49,12.40
2019,07,01,06,50,12.50
2019,07,01,06,51,12.50
2019,07,01,06,52,12.60
2019,07,01,06,53,12.60
2019,07,01,06,54,12.60
2019,07,01,06,55,12.60
2019,07,01,06,56,12.70
2019,07,01,06,57,12.70
2019,07,01,06,58,12.70
2019,07,01,06,59,12.80
2019,07,01,07,00,12.80
2019,07,01,07,01,12.80
2019,07,01,07,02,12.80
2019,07,01,07,03,12.80
2019,07,01,07,04,12.90
2019,07,01,07,05,12.90
2019,07,01,07,06,12.90
2019,07,01,07,07,13.00
2019,07,01,07,08,13.10
2019,07,01,07,09,13.10
2019,07,01,07,10,13.10
2019,07,01,07,11,13.20
2019,07,01,07,12,13.20
2019,07,01,07,13,13.30
2019,07,01,07,14,13.30
2019,07,01,07,15,13.40
2019,07,01,07,16,13.40
2019,07,01,07,17,13.40
2019,07,01,07,18,13.40
2019,07,01,07,19,13.50
2019,07,01,07,20,13.60
2019,07,01,07,21,13.60
2019,07,01,07,22,13.60
2019,07,01,07,23,13.70
2019,07,01,07,24,13.70
2019,07,01,07,25,13.80
2019,07,01,07,26,13.80
2019,07,01,07,27,13.90
2019,07,01,07,28,14.00
2019,07,01,07,29,14.10
2019,07,01,07,30,14.20
2019,07,01,07,31,14.30
2019,07,01,07,32,14.40
2019,07,01,07,33,14.50
2019,07,01,07,34,14.60
2019,07,01,07,35,14.60
2019,07,01,07,36,14.70
2019,07,01,07,37,14.70
2019,07,01,07,38,14.80
2019,07,01,07,39,14.80
2019,07,01,07,40,14.90
2019,07,01,07,41,14.90
2019,07,01,07,42,14.90
2019,07,01,07,43,15.00
2019,07,01,07,44,15.00
2019,07,01,07,45,15.00
2019,07,01,07,46,15.00
2019,07,01,07,47,15.00
2019,07,01,07,48,15.00
2019,07,01,07,49,15.10
2019,07,01,07,50,15.10
2019,07,01,07,51,15.10
2019,07,01,07,52,15.10
2019,07,01,07,53,15.10
2019,07,01,07,54,15.10
2019,07,01,07,55,15.10
2019,07,01,07,56,15.10
2019,07,01,07,57,15.10
2019,07,01,07,58,15.10
2019,07,01,07,59,15.10
2019,07,01,08,00,15.10
2019,07,01,08,01,15.10
2019,07,01,08,02,15.10
2019,07,01,08,03,15.10
2019,07,01,08,04,15.10
2019,07,01,08,05,15.10
2019,07,01,08,06,15.10
2019,07,01,08,07,15.10
2019,07,01,08,08,15.10
2019,07,01,08,09,15.10
2019,07,01,08,10,15.10
2019,07,01,08,11,15.10
2019,07,01,08,12,15.10
2019,07,01,08,13,15.10
2019,07,01,08,14,15.10
2019,07,01,08,15,15.10
2019,07,01,08,16,15.10
2019,07,01,08,17,15.20
2019,07,01,08,18,15.20
2019,07,01,08,19,15.20
2019,07,01,08,20,15.20
2019,07,01,08,21,15.20
2019,07,01,08,22,15.30
2019,07,01,08,23,15.30
2019,07,01,08,24,15.30
2019,07,01,08,25,15.30
2019,07,01,08,26,15.40
2019,07,01,08,27,15.40
2019,07,01,08,28,15.50
2019,07,01,08,29,15.50
2019,07,01,08,30,15.60
2019,07,01,08,31,15.60
2019,07,01,08,32,15.70
2019,07,01,08,33,15.70
2019,07,01,08,34,15.80
2019,07,01,08,35,15.80
2019,07,01,08,36,15.90
2019,07,01,08,37,15.90
2019,07,01,08,38,16.00
2019,07,01,08,39,16.10
2019,07,01,08,40,16.20
2019,07,01,08,41,16.20
2019,07,01,08,42,16.30
2019,07,01,08,43,16.40
2019,07,01,08,44,16.50
2019,07,01,08,45,16.60
2019,07,01,08,46,16.70
2019,07,01,08,47,16.80
2019,07,01,08,48,17.00
2019,07,01,08,49,17.10
2019,07,01,08,50,17.20
2019,07,01,08,51,17.30
2019,07,01,08,52,17.40
2019,07,01,08,53,17.60
2019,07,01,08,54,17.70
2019,07,01,08,55,17.80
2019,07,01,08,56,17.90
2019,07,01,08,57,18.00
2019,07,01,08,58,18.10
2019,07,01,08,59,18.20
2019,07,01,09,00,18.30
2019,07,01,09,01,18.40
2019,07,01,09,02,18.50
2019,07,01,09,03,18.60
2019,07,01,09,04,18.70
2019,07,01,09,05,18.80
2019,07,01,09,06,18.90
2019,07,01,09,07,19.00
2019,07,01,09,08,19.10
2019,07,01,09,09,19.20
2019,07,01,09,10,19.20
2019,07,01,09,11,19.20
2019,07,01,09,12,19.30
2019,07,01,09,13,19.40
2019,07,01,09,14,19.40
2019,07,01,09,15,19.40
2019,07,01,09,16,19.40
2019,07,01,09,17,19.50
2019,07,01,09,18,19.50
2019,07,01,09,19,19.60
2019,07,01,09,20,19.60
2019,07,01,09,21,19.70
2019,07,01,09,22,19.70
2019,07,01,09,23,19.80
2019,07,01,09,24,19.80
2019,07,01,09,25,19.90
2019,07,01,09,26,20.00
2019,07,01,09,27,20.10
2019,07,01,09,28,20.20
2019,07,01,09,29,20.30
2019,07,01,09,30,20.40
2019,07,01,09,31,20.40
2019,07,01,09,32,20.50
2019,07,01,09,33,20.60
2019,07,01,09,34,20.70
2019,07,01,09,35,20.80
2019,07,01,09,36,20.80
2019,07,01,09,37,20.90
2019,07,01,09,38,20.90
2019,07,01,09,39,21.00
2019,07,01,09,40,21.10
2019,07,01,09,41,21.10
2019,07,01,09,42,21.20
2019,07,01,09,43,21.30
2019,07,01,09,44,21.30
2019,07,01,09,45,21.30
2019,07,01,09,46,21.40
2019,07,01,09,47,21.40
2019,07,01,09,48,21.50
2019,07,01,09,49,21.50
2019,07,01,09,50,21.60
2019,07,01,09,51,21.60
2019,07,01,09,52,21.70
2019,07,01,09,53,21.80
2019,07,01,09,54,21.80
2019,07,01,09,55,21.90
2019,07,01,09,56,21.90
2019,07,01,09,57,22.00
2019,07,01,09,58,22.00
2019,07,01,09,59,22.10
2019,07,01,10,00,22.10
2019,07,01,10,01,22.20
2019,07,01,10,02,22.20
2019,07,01,10,03,22.20
2019,07,01,10,04,22.30
2019,07,01,10,05,22.30
2019,07,01,10,06,22.30
2019,07,01,10,07,22.30
2019,07,01,10,08,22.30
2019,07,01,10,09,22.30
2019,07,01,10,10,22.30
2019,07,01,10,11,22.30
2019,07,01,10,12,22.30
2019,07,01,10,13,22.20
2019,07,01,10,14,22.20
2019,07,01,10,15,22.20
2019,07,01,10,16,22.20
2019,07,01,10,17,22.20
2019,07,01,10,18,22.20
2019,07,01,10,19,22.20
2019,07,01,10,20,22.20
2019,07,01,10,21,22.30
2019,07,01,10,22,22.40
2019,07,01,10,23,22.50
2019,07,01,10,24,22.50
2019,07,01,10,25,22.50
2019,07,01,10,26,22.50
2019,07,01,10,27,22.40
2019,07,01,10,28,22.40
2019,07,01,10,29,22.40
2019,07,01,10,30,22.40
2019,07,01,10,31,22.40
2019,07,01,10,32,22.50
2019,07,01,10,33,22.50
2019,07,01,10,34,22.60
2019,07,01,10,35,22.70
2019,07,01,10,36,22.70
2019,07,01,10,37,22.80
2019,07,01,10,38,22.80
2019,07,01,10,39,22.80
2019,07,01,10,40,22.90
2019,07,01,10,41,23.00
2019,07,01,10,42,23.00
2019,07,01,10,43,23.10
2019,07,01,10,44,23.10
2019,07,01,10,45,23.20
2019,07,01,10,46,23.30
2019,07,01,10,47,23.30
2019,07,01,10,48,23.30
2019,07,01,10,49,23.40
2019,07,01,10,50,23.40
2019,07,01,10,51,23.40
2019,07,01,10,52,23.40
2019,07,01,10,53,23.40
2019,07,01,10,54,23.40
2019,07,01,10,55,23.30
2019,07,01,10,56,23.20
2019,07,01,10,57,23.10
2019,07,01,10,58,23.00
2019,07,01,10,59,23.00
2019,07,01,11,00,22.90
2019,07,01,11,01,22.90
2019,07,01,11,02,22.90
2019,07,01,11,03,22.90
2019,07,01,11,04,22.90
2019,07,01,11,05,22.90
2019,07,01,11,06,22.90
2019,07,01,11,07,22.90
2019,07,01,11,08,22.90
2019,07,01,11,09,22.90
2019,07,01,11,10,22.90
2019,07,01,11,11,22.90
2019,07,01,11,12,23.00
2019,07,01,11,13,23.00
2019,07,01,11,14,23.10
2019,07,01,11,15,23.10
2019,07,01,11,16,23.20
2019,07,01,11,17,23.20
2019,07,01,11,18,23.30
2019,07,01,11,19,23.30
2019,07,01,11,20,23.40
2019,07,01,11,21,23.40
2019,07,01,11,22,23.50
2019,07,01,11,23,23.60
2019,07,01,11,24,23.60
2019,07,01,11,25,23.60
2019,07,01,11,26,23.60
2019,07,01,11,27,23.70
2019,07,01,11,28,23.80
2019,07,01,11,29,23.90
2019,07,01,11,30,23.90
2019,07,01,11,31,23.90
2019,07,01,11,32,24.00
2019,07,01,11,33,24.00
2019,07,01,11,34,24.00
2019,07,01,11,35,24.10
2019,07,01,11,36,24.10
2019,07,01,11,37,24.20
2019,07,01,11,38,24.30
2019,07,01,11,39,24.30
2019,07,01,11,40,24.40
2019,07,01,11,41,24.40
2019,07,01,11,42,24.50
2019,07,01,11,43,24.50
2019,07,01,11,44,24.60
2019,07,01,11,45,24.60
2019,07,01,11,46,24.60
2019,07,01,11,47,24.70
2019,07,01,11,48,24.70
2019,07,01,11,49,24.60
2019,07,01,11,50,24.60
2019,07,01,11,51,24.50
2019,07,01,11,52,24.40
2019,07,01,11,53,24.30
2019,07,01,11,54,24.30
2019,07,01,11,55,24.30
2019,07,01,11,56,24.20
2019,07,01,11,57,24.20
2019,07,01,11,58,24.20
2019,07,01,11,59,24.20
2019,07,01,12,00,24.30
2019,07,01,12,01,24.30
2019,07,01,12,02,24.40
2019,07,01,12,03,24.50
2019,07,01,12,04,24.60
2019,07,01,12,05,24.60
2019,07,01,12,06,24.70
2019,07,01,12,07,24.70
2019,07,01,12,08,24.80
2019,07,01,12,09,24.80
2019,07,01,12,10,24.90
2019,07,01,12,11,24.90
2019,07,01,12,12,25.00
2019,07,01,12,13,25.00
2019,07,01,12,14,25.00
2019,07,01,12,15,24.90
2019,07,01,12,16,25.00
2019,07,01,12,17,25.00
2019,07,01,12,18,25.10
2019,07,01,12,19,25.10
2019,07,01,12,20,25.20
2019,07,01,12,21,25.20
2019,07,01,12,22,25.20
2019,07,01,12,23,25.20
2019,07,01,12,24,25.20
2019,07,01,12,25,25.20
2019,07,01,12,26,25.20
2019,07,01,12,27,25.20
2019,07,01,12,28,25.30
2019,07,01,12,29,25.30
2019,07,01,12,30,25.30
2019,07,01,12,31,25.20
2019,07,01,12,32,25.20
2019,07,01,12,33,25.10
2019,07,01,12,34,25.00
2019,07,01,12,35,24.90
2019,07,01,12,36,24.90
2019,07,01,12,37,24.90
2019,07,01,12,38,24.90
2019,07,01,12,39,25.00
2019,07,01,12,40,25.10
2019,07,01,12,41,25.10
2019,07,01,12,42,25.20
2019,07,01,12,43,25.30
2019,07,01,12,44,25.30
2019,07,01,12,45,25.30
2019,07,01,12,46,25.30
2019,07,01,12,47,25.30
2019,07,01,12,48,25.30
2019,07,01,12,49,25.30
2019,07,01,12,50,25.30
2019,07,01,12,51,25.20
2019,07,01,12,52,25.20
2019,07,01,12,53,25.20
2019,07,01,12,54,25.20
2019,07,01,12,55,25.10
2019,07,01,12,56,25.10
2019,07,01,12,57,25.00
2019,07,01,12,58,25.00
2019,07,01,12,59,25.00
2019,07,01,13,00,25.00
2019,07,01,13,01,25.10
2019,07,01,13,02,25.10
2019,07,01,13,03,25.10
2019,07,01,13,04,25.10
2019,07,01,13,05,25.10
2019,07,01,13,06,25.20
2019,07,01,13,07,25.20
2019,07,01,13,08,25.20
2019,07,01,13,09,25.30
2019,07,01,13,10,25.30
2019,07,01,13,11,25.40
2019,07,01,13,12,25.40
2019,07,01,13,13,25.50
2019,07,01,13,14,25.60
2019,07,01,13,15,25.60
2019,07,01,13,16,25.50
2019,07,01,13,17,25.40
2019,07,01,13,18,25.30
2019,07,01,13,19,25.30
2019,07,01,13,20,25.30
2019,07,01,13,21,25.30
2019,07,01,13,22,25.40
2019,07,01,13,23,25.40
2019,07,01,13,24,25.40
2019,07,01,13,25,25.40
2019,07,01,13,26,25.40
2019,07,01,13,27,25.40
2019,07,01,13,28,25.50
2019,07,01,13,29,25.40
2019,07,01,13,30,25.40
2019,07,01,13,31,25.30
2019,07,01,13,32,25.30
2019,07,01,13,33,25.30
2019,07,01,13,34,25.30
2019,07,01,13,35,25.30
2019,07,01,13,36,25.40
2019,07,01,13,37,25.40
2019,07,01,13,38,25.50
2019,07,01,13,39,25.50
2019,07,01,13,40,25.60
2019,07,01,13,41,25.50
2019,07,01,13,42,25.50
2019,07,01,13,43,25.30
2019,07,01,13,44,25.30
2019,07,01,13,45,25.20
2019,07,01,13,46,25.30
2019,07,01,13,47,25.30
2019,07,01,13,48,25.30
2019,07,01,13,49,25.40
2019,07,01,13,50,25.60
2019,07,01,13,51,25.70
2019,07,01,13,52,25.80
2019,07,01,13,53,25.90
2019,07,01,13,54,26.10
2019,07,01,13,55,26.20
2019,07,01,13,56,26.20
2019,07,01,13,57,26.20
2019,07,01,13,58,26.20
2019,07,01,13,59,26.20
2019,07,01,14,00,26.20
2019,07,01,14,01,26.30
2019,07,01,14,02,26.40
2019,07,01,14,03,26.50
2019,07,01,14,04,26.60
2019,07,01,14,05,26.70
2019,07,01,14,06,26.80
2019,07,01,14,07,26.80
2019,07,01,14,08,26.80
2019,07,01,14,09,26.80
2019,07,01,14,10,26.80
2019,07,01,14,11,26.80
2019,07,01,14,12,26.80
2019,07,01,14,13,26.80
2019,07,01,14,14,26.80
2019,07,01,14,15,26.80
2019,07,01,14,16,26.80
2019,07,01,14,17,26.90
2019,07,01,14,18,26.90
2019,07,01,14,19,26.80
2019,07,01,14,20,26.80
2019,07,01,14,21,26.70
2019,07,01,14,22,26.70
2019,07,01,14,23,26.70
2019,07,01,14,24,26.70
2019,07,01,14,25,26.70
2019,07,01,14,26,26.70
2019,07,01,14,27,26.70
2019,07,01,14,28,26.80
2019,07,01,14,29,26.80
2019,07,01,14,30,26.90
2019,07,01,14,31,27.00
2019,07,01,14,32,27.00
2019,07,01,14,33,27.00
2019,07,01,14,34,27.00
2019,07,01,14,35,27.00
2019,07,01,14,36,26.90
2019,07,01,14,37,26.80
2019,07,01,14,38,26.60
2019,07,01,14,39,26.40
2019,07,01,14,40,26.20
2019,07,01,14,41,26.10
2019,07,01,14,42,26.00
2019,07,01,14,43,25.90
2019,07,01,14,44,25.90
2019,07,01,14,45,25.90
2019,07,01,14,46,26.00
2019,07,01,14,47,26.10
2019,07,01,14,48,26.20
2019,07,01,14,49,26.20
2019,07,01,14,50,26.30
2019,07,01,14,51,26.30
2019,07,01,14,52,26.20
2019,07,01,14,53,26.20
2019,07,01,14,54,26.30
2019,07,01,14,55,26.30
2019,07,01,14,56,26.40
2019,07,01,14,57,26.50
2019,07,01,14,58,26.60
2019,07,01,14,59,26.70
2019,07,01,15,00,26.80
2019,07,01,15,01,26.80
2019,07,01,15,02,26.80
2019,07,01,15,03,26.80
2019,07,01,15,04,26.80
2019,07,01,15,05,26.80
2019,07,01,15,06,26.90
2019,07,01,15,07,26.90
2019,07,01,15,08,26.90
2019,07,01,15,09,27.00
2019,07,01,15,10,27.00
2019,07,01,15,11,27.10
2019,07,01,15,12,27.10
2019,07,01,15,13,27.10
2019,07,01,15,14,27.10
2019,07,01,15,15,27.10
2019,07,01,15,16,27.10
2019,07,01,15,17,27.10
2019,07,01,15,18,27.10
2019,07,01,15,19,27.10
2019,07,01,15,20,27.10
2019,07,01,15,21,27.20
2019,07,01,15,22,27.20
2019,07,01,15,23,27.20
2019,07,01,15,24,27.30
2019,07,01,15,25,27.30
2019,07,01,15,26,27.30
2019,07,01,15,27,27.30
2019,07,01,15,28,27.40
2019,07,01,15,29,27.40
2019,07,01,15,30,27.40
2019,07,01,15,31,27.40
2019,07,01,15,32,27.30
2019,07,01,15,33,27.20
2019,07,01,15,34,27.10
2019,07,01,15,35,26.90
2019,07,01,15,36,26.80
2019,07,01,15,37,26.80
2019,07,01,15,38,26.90
2019,07,01,15,39,27.00
2019,07,01,15,40,27.00
2019,07,01,15,41,27.10
2019,07,01,15,42,27.20
2019,07,01,15,43,27.30
2019,07,01,15,44,27.30
2019,07,01,15,45,27.40
2019,07,01,15,46,27.40
2019,07,01,15,47,27.40
2019,07,01,15,48,27.30
2019,07,01,15,49,27.20
2019,07,01,15,50,27.10
2019,07,01,15,51,27.10
2019,07,01,15,52,27.10
2019,07,01,15,53,27.10
2019,07,01,15,54,27.20
2019,07,01,15,55,27.10
2019,07,01,15,56,27.10
2019,07,01,15,57,27.10
2019,07,01,15,58,27.10
2019,07,01,15,59,27.10
2019,07,01,16,00,27.10
2019,07,01,16,01,27.00
2019,07,01,16,02,26.90
2019,07,01,16,03,26.80
2019,07,01,16,04,26.70
2019,07,01,16,05,26.60
2019,07,01,16,06,26.50
2019,07,01,16,07,26.40
2019,07,01,16,08,26.30
2019,07,01,16,09,26.30
2019,07,01,16,10,26.20
2019,07,01,16,11,26.20
2019,07,01,16,12,26.20
2019,07,01,16,13,26.20
2019,07,01,16,14,26.20
2019,07,01,16,15,26.20
2019,07,01,16,16,26.20
2019,07,01,16,17,26.30
2019,07,01,16,18,26.20
2019,07,01,16,19,26.20
2019,07,01,16,20,26.20
2019,07,01,16,21,26.20
2019,07,01,16,22,26.30
2019,07,01,16,23,26.30
2019,07,01,16,24,26.30
2019,07,01,16,25,26.30
2019,07,01,16,26,26.20
2019,07,01,16,27,26.20
2019,07,01,16,28,26.20
2019,07,01,16,29,26.20
2019,07,01,16,30,26.20
2019,07,01,16,31,26.20
2019,07,01,16,32,26.10
2019,07,01,16,33,26.10
2019,07,01,16,34,26.00
2019,07,01,16,35,26.00
2019,07,01,16,36,25.90
2019,07,01,16,37,25.90
2019,07,01,16,38,25.80
2019,07,01,16,39,25.70
2019,07,01,16,40,25.60
2019,07,01,16,41,25.50
2019,07,01,16,42,25.40
2019,07,01,16,43,25.40
2019,07,01,16,44,25.40
2019,07,01,16,45,25.30
2019,07,01,16,46,25.30
2019,07,01,16,47,25.30
2019,07,01,16,48,25.20
2019,07,01,16,49,25.20
2019,07,01,16,50,25.30
2019,07,01,16,51,25.30
2019,07,01,16,52,25.30
2019,07,01,16,53,25.30
2019,07,01,16,54,25.30
2019,07,01,16,55,25.30
2019,07,01,16,56,25.30
2019,07,01,16,57,25.30
2019,07,01,16,58,25.30
2019,07,01,16,59,25.30
2019,07,01,17,00,25.20
2019,07,01,17,01,25.20
2019,07,01,17,02,25.20
2019,07,01,17,03,25.30
2019,07,01,17,04,25.30
2019,07,01,17,05,25.30
2019,07,01,17,06,25.40
2019,07,01,17,07,25.40
2019,07,01,17,08,25.40
2019,07,01,17,09,25.50
2019,07,01,17,10,25.50
2019,07,01,17,11,25.50
2019,07,01,17,12,25.60
2019,07,01,17,13,25.60
2019,07,01,17,14,25.70
2019,07,01,17,15,25.70
2019,07,01,17,16,25.80
2019,07,01,17,17,25.80
2019,07,01,17,18,25.70
2019,07,01,17,19,25.60